[[{"header":{"parameterUnit":"m.s-1","parameterCategory":1,"la1":30.2991,"la2":30.254,"lo1":-89.0895,"lo2":-89.0444,"dy":0.0017,"dx":0.0017,"nx":28,"ny":28,"refTime":"2024-08-18T21:00:00:Z","depth":0,"parameterNumber":2,"parameterNumberName":"U-component_of_WINDS"},"data":[0,0,0,0,0,0,0,0,0,0,0,0,0,0,0,0,0,0,0,0,0,0,0,0,0,0,0,0,0,0,0,0,0,0,0,0,0,0,0,0,0,0,0,0,0,0,0,0,0,0,0,0,0,0,0,0,0,0,0.2484,0.2485,0,0.2542,0.2542,0.2543,0.2602,0.2603,0.2604,0.2604,0.2664,0.2665,0.2666,0,0,0,0,0,0,0,0,0,0,0,0,0,0.2427,0.2428,0.2484,0.2485,0.2486,0.2542,0.2542,0.2543,0.2602,0.2603,0.2604,0.2605,0.2664,0.2665,0.2666,0,0,0,0,0,0,0,0,0,0,0,0,0,0.2465,0.2428,0.2484,0.2522,0.2526,0.2541,0.2542,0.2543,0.2602,0.2603,0.2604,0.2605,0.2664,0.2665,0.2666,0.265,0,0,0.267,0.267,0,0,0,0,0,0,0,0,0.2463,0.2467,0.2515,0.2519,0.2524,0.2566,0.2544,0.2579,0.2601,0.2573,0.2604,0.2606,0.2631,0.2635,0.2643,0.2652,0.2655,0.267,0.2671,0.2671,0.2672,0,0,0,0,0,0,0,0.246,0.2465,0.2507,0.2516,0.2521,0.2536,0.2543,0.2551,0.2594,0.2575,0.258,0.2586,0.2633,0.2641,0.2645,0.2656,0.267,0.2671,0.2672,0.2672,0.2656,0.2654,0,0,0,0,0,0,0.2452,0.2462,0.2505,0.2509,0.2496,0.2536,0.2544,0.2551,0.2594,0.2602,0.2585,0.2588,0.2639,0.2643,0.2647,0.263,0.2671,0.2672,0.2673,0.2657,0.2655,0.2654,0,0,0,0,0,0,0.245,0.2455,0.2503,0.2487,0.2494,0.2536,0.2544,0.2552,0.256,0.2601,0.2609,0.2585,0.264,0.2645,0.2649,0.2633,0.2673,0.2674,0.2658,0.2656,0.2655,0.2597,0,0,0,0,0,0,0.2448,0.2454,0.2448,0.2486,0.2495,0.2503,0.2543,0.2552,0.2562,0.2567,0.2604,0.2611,0.2641,0.2646,0.265,0.2636,0.2675,0.266,0.2657,0.2655,0.26,0.2594,0.2588,0,0,0,0,0,0.2446,0.2429,0.2447,0.2452,0.2488,0.2502,0.2507,0.2541,0.256,0.2555,0.2581,0.261,0.2635,0.2646,0.2651,0.2637,0.2661,0.2658,0.2655,0.2603,0.2595,0.2588,0,0,0,0,0,0,0.2388,0.2435,0.2455,0.245,0.2471,0.2512,0.2505,0.2531,0.2547,0.2552,0.2594,0.2602,0.2601,0.262,0.2631,0.2623,0.2652,0.265,0.2611,0.2603,0.2597,0.2592,0.2676,0,0,0,0,0,0.2375,0.2382,0.2423,0.2414,0.2424,0.2463,0.247,0.2495,0.2519,0.2528,0.2555,0.2578,0.2591,0.2598,0.2612,0.2604,0.2613,0.2597,0.259,0.2585,0.2582,0.258,0.2573,0.2645,0.2645,0.2645,0,0,0.2347,0.2374,0.2375,0.2403,0.2423,0.243,0.247,0.2475,0.2481,0.2529,0.2534,0.2555,0.2583,0.258,0.258,0.2595,0.2565,0.2582,0.2577,0.2577,0.2576,0.2569,0.2563,0.2643,0.2644,0.2644,0,0,0.23,0.2321,0.2316,0.2335,0.2364,0.239,0.2389,0.2425,0.2441,0.2446,0.2482,0.249,0.2512,0.253,0.2542,0.2503,0.253,0.2507,0.2473,0.2469,0.2464,0.2459,0.2444,0.2439,0.2505,0.2504,0.2504,0,0.2261,0.2273,0.231,0.2314,0.2325,0.2369,0.2365,0.2382,0.2414,0.2421,0.2438,0.2466,0.2488,0.249,0.2481,0.249,0.249,0.2502,0.2461,0.2457,0.2453,0.244,0.2434,0.2501,0.2502,0.2502,0.2502,0,0.2224,0.2232,0.2225,0.2254,0.2265,0.2265,0.2303,0.2309,0.2334,0.2358,0.2363,0.2392,0.2412,0.2415,0.2439,0.2421,0.243,0.2453,0.2483,0.2442,0.243,0.2426,0.2497,0.2498,0.2499,0.25,0,0,0.214,0.2192,0.2188,0.2202,0.2238,0.2245,0.2247,0.2267,0.2272,0.2293,0.2296,0.2313,0.2336,0.2349,0.2376,0.2373,0.234,0.2398,0.2399,0.2385,0.2322,0.2303,0.2296,0.2359,0.2358,0.2358,0.2319,0,0.2099,0.2104,0.2139,0.2134,0.2142,0.2185,0.2187,0.2209,0.2232,0.2243,0.2269,0.228,0.2309,0.2318,0.2317,0.2344,0.2328,0.2348,0.2362,0.2362,0.2352,0.229,0.227,0.2233,0.2315,0.2314,0.2314,0,0.205,0.2068,0.2064,0.21,0.2105,0.2106,0.2127,0.2136,0.2163,0.218,0.2196,0.2226,0.2232,0.226,0.2268,0.228,0.2289,0.2303,0.2303,0.2304,0.2334,0.2289,0.2222,0.2215,0.2307,0.2308,0.2308,0,0.1989,0.2012,0.2013,0.2024,0.2066,0.2066,0.2083,0.2111,0.2121,0.2141,0.2148,0.2167,0.2178,0.2193,0.2227,0.2245,0.2231,0.2263,0.2246,0.2245,0.224,0.2239,0.2171,0.2247,0.2247,0.2247,0.2247,0,0.1938,0.1933,0.1986,0.1986,0.1983,0.2023,0.2019,0.2041,0.2066,0.2071,0.2111,0.2115,0.2162,0.2172,0.22,0.2202,0.2206,0.2221,0.2228,0.2216,0.2214,0.2221,0.2224,0.2245,0.2246,0.2246,0.2246,0,0.1868,0.1902,0.1906,0.1946,0.1956,0.1952,0.1986,0.1989,0.2015,0.2022,0.2026,0.2067,0.2081,0.2117,0.2141,0.216,0.2154,0.2168,0.2145,0.2149,0.213,0.213,0.2062,0.2055,0.2136,0.2135,0.2135,0,0.1832,0.183,0.187,0.1876,0.1892,0.1902,0.1913,0.1953,0.1962,0.1993,0.1992,0.2009,0.2024,0.2045,0.2077,0.2096,0.211,0.2085,0.2113,0.2102,0.2109,0.2108,0.2108,0.2078,0.2077,0.2076,0.2076,0,0.1765,0.1783,0.1796,0.1815,0.1827,0.1844,0.1864,0.1867,0.1913,0.1921,0.1936,0.1948,0.1972,0.1989,0.2013,0.2032,0.2061,0.2067,0.2064,0.2051,0.2037,0.2044,0.2127,0.2068,0.2069,0.2069,0.207,0.207,0.1711,0.1711,0.1739,0.1753,0.1772,0.1789,0.1793,0.182,0.1833,0.1855,0.1879,0.1891,0.1919,0.1954,0.1971,0.1981,0.1997,0.1992,0.1991,0.1989,0.1983,0.2037,0.1986,0.1986,0.1987,0.1987,0.1987,0,0.1645,0.1666,0.1678,0.1704,0.1715,0.1742,0.1766,0.1773,0.1783,0.1806,0.1821,0.1838,0.1854,0.1888,0.1908,0.191,0.1924,0.1913,0.1913,0.1917,0.1969,0.1969,0.1902,0.1902,0.1902,0.1902,0.1902,0.1902,0.1613,0.1614,0.1635,0.1646,0.1667,0.1679,0.169,0.1706,0.1725,0.1742,0.1756,0.1778,0.1806,0.1828,0.1844,0.1854,0.1859,0.1844,0.1858,0.1905,0.1913,0.1921,0.1921,0.1845,0.1845,0.1805,0.1804,0.1804]},{"header":{"parameterUnit":"m.s-1","parameterCategory":1,"la1":30.2991,"la2":30.254,"lo1":-89.0895,"lo2":-89.0444,"dy":0.0017,"dx":0.0017,"nx":28,"ny":28,"refTime":"2024-08-18T21:00:00:Z","depth":0,"parameterNumber":3,"parameterNumberName":"V-component_of_WINDS"},"data":[0,0,0,0,0,0,0,0,0,0,0,0,0,0,0,0,0,0,0,0,0,0,0,0,0,0,0,0,0,0,0,0,0,0,0,0,0,0,0,0,0,0,0,0,0,0,0,0,0,0,0,0,0,0,0,0,0,0,-1.3691,-1.3691,0,-1.3694,-1.3694,-1.3694,-1.3717,-1.3718,-1.3718,-1.3719,-1.3722,-1.3722,-1.3721,0,0,0,0,0,0,0,0,0,0,0,0,0,-1.3708,-1.3708,-1.3691,-1.3691,-1.3691,-1.3694,-1.3694,-1.3694,-1.3717,-1.3718,-1.3718,-1.3719,-1.3722,-1.3722,-1.3721,0,0,0,0,0,0,0,0,0,0,0,0,0,-1.3705,-1.3708,-1.3691,-1.3703,-1.3704,-1.3694,-1.3694,-1.3694,-1.3717,-1.3718,-1.3719,-1.3719,-1.3723,-1.3722,-1.3721,-1.37,0,0,-1.3719,-1.3719,0,0,0,0,0,0,0,0,-1.3705,-1.3704,-1.3701,-1.3702,-1.3703,-1.3706,-1.3702,-1.3696,-1.3717,-1.3712,-1.3719,-1.372,-1.3716,-1.3716,-1.3715,-1.3701,-1.3701,-1.3719,-1.3719,-1.3719,-1.3718,0,0,0,0,0,0,0,-1.3705,-1.3704,-1.3692,-1.3701,-1.3703,-1.3709,-1.371,-1.3701,-1.3709,-1.3713,-1.3714,-1.3714,-1.3717,-1.3715,-1.3715,-1.3701,-1.3719,-1.3719,-1.3718,-1.3718,-1.3674,-1.3673,0,0,0,0,0,0,-1.3704,-1.3704,-1.3692,-1.3693,-1.3706,-1.3708,-1.3709,-1.3704,-1.371,-1.3711,-1.3714,-1.3715,-1.3716,-1.3716,-1.3715,-1.3694,-1.3719,-1.3718,-1.3718,-1.3674,-1.3673,-1.3673,0,0,0,0,0,0,-1.3704,-1.3702,-1.3692,-1.3699,-1.3698,-1.3707,-1.3702,-1.3704,-1.3703,-1.371,-1.3712,-1.371,-1.3717,-1.3716,-1.3705,-1.3694,-1.3718,-1.3717,-1.3675,-1.3674,-1.3673,-1.3649,0,0,0,0,0,0,-1.3704,-1.3702,-1.3694,-1.3699,-1.3698,-1.3681,-1.3701,-1.3704,-1.3701,-1.3704,-1.3708,-1.3709,-1.3717,-1.3706,-1.3704,-1.3694,-1.3717,-1.3676,-1.3675,-1.3673,-1.3651,-1.3647,-1.3644,0,0,0,0,0,-1.3705,-1.3686,-1.3693,-1.3691,-1.3687,-1.368,-1.368,-1.3689,-1.37,-1.3692,-1.3698,-1.3709,-1.3695,-1.3704,-1.3703,-1.3692,-1.3677,-1.3675,-1.3673,-1.3652,-1.3648,-1.3644,0,0,0,0,0,0,-1.3679,-1.3687,-1.3695,-1.3677,-1.3678,-1.3684,-1.3674,-1.3684,-1.3682,-1.3684,-1.3696,-1.3697,-1.3685,-1.3687,-1.3697,-1.3674,-1.3688,-1.3686,-1.3673,-1.3669,-1.3665,-1.3665,-1.3716,0,0,0,0,0,-1.3671,-1.3664,-1.3672,-1.3655,-1.3655,-1.3665,-1.3662,-1.367,-1.3671,-1.3672,-1.3676,-1.3678,-1.3674,-1.3671,-1.3668,-1.3651,-1.3654,-1.3643,-1.364,-1.3637,-1.3635,-1.363,-1.3626,-1.3667,-1.3667,-1.3667,0,0,-1.3655,-1.3658,-1.3653,-1.365,-1.3652,-1.3646,-1.3665,-1.3656,-1.3653,-1.367,-1.3661,-1.3664,-1.3667,-1.3653,-1.3648,-1.3655,-1.3625,-1.3635,-1.3632,-1.3632,-1.3627,-1.3623,-1.362,-1.3665,-1.3666,-1.3666,0,0,-1.3622,-1.3623,-1.3611,-1.3613,-1.3616,-1.3623,-1.362,-1.3625,-1.3629,-1.3619,-1.3633,-1.3629,-1.3622,-1.3624,-1.3624,-1.3596,-1.3607,-1.3595,-1.3577,-1.3572,-1.3568,-1.3566,-1.3558,-1.3555,-1.3593,-1.3593,-1.3593,0,-1.3602,-1.3593,-1.3604,-1.3596,-1.3595,-1.3612,-1.3601,-1.3602,-1.3604,-1.3604,-1.3612,-1.3605,-1.3608,-1.3597,-1.359,-1.3589,-1.3588,-1.3595,-1.3568,-1.3565,-1.3563,-1.3556,-1.3552,-1.3592,-1.3592,-1.3592,-1.3592,0,-1.3569,-1.3562,-1.3552,-1.3555,-1.3553,-1.3543,-1.3554,-1.3552,-1.356,-1.3567,-1.3558,-1.3562,-1.3562,-1.356,-1.3567,-1.355,-1.3555,-1.3565,-1.358,-1.3557,-1.3551,-1.3548,-1.359,-1.359,-1.359,-1.3591,0,0,-1.3519,-1.3529,-1.3525,-1.3528,-1.3534,-1.3529,-1.3522,-1.3522,-1.352,-1.3521,-1.3517,-1.3512,-1.3522,-1.3522,-1.3531,-1.3526,-1.3506,-1.3537,-1.3537,-1.3533,-1.3491,-1.3484,-1.3481,-1.3514,-1.3513,-1.3513,-1.3492,0,-1.3489,-1.3477,-1.3488,-1.3474,-1.347,-1.3487,-1.3481,-1.3484,-1.349,-1.3489,-1.3496,-1.3493,-1.3506,-1.3507,-1.3502,-1.351,-1.3498,-1.3511,-1.3511,-1.3511,-1.3511,-1.3477,-1.3469,-1.3449,-1.3489,-1.3488,-1.3488,0,-1.3453,-1.3454,-1.344,-1.3449,-1.3448,-1.3442,-1.3444,-1.3442,-1.3447,-1.3453,-1.3454,-1.3465,-1.346,-1.3475,-1.3469,-1.3477,-1.3478,-1.3482,-1.3482,-1.3483,-1.3499,-1.3479,-1.3442,-1.344,-1.3484,-1.3484,-1.3484,0,-1.3421,-1.3418,-1.341,-1.3412,-1.3422,-1.3418,-1.3422,-1.3428,-1.3428,-1.3431,-1.3432,-1.3433,-1.3434,-1.3436,-1.3448,-1.3457,-1.3442,-1.3456,-1.3447,-1.3447,-1.3444,-1.3444,-1.3408,-1.3442,-1.3442,-1.3442,-1.3442,0,-1.3388,-1.3379,-1.3397,-1.3391,-1.3383,-1.3397,-1.3388,-1.3394,-1.34,-1.3397,-1.3412,-1.341,-1.3425,-1.3425,-1.3434,-1.3429,-1.3429,-1.3435,-1.3437,-1.3434,-1.3434,-1.3435,-1.3437,-1.3441,-1.3441,-1.3442,-1.3442,0,-1.335,-1.3362,-1.3354,-1.3365,-1.3368,-1.3361,-1.3371,-1.3368,-1.3376,-1.3373,-1.3374,-1.3386,-1.3387,-1.3399,-1.3402,-1.3409,-1.3401,-1.3406,-1.3399,-1.3402,-1.3393,-1.3394,-1.3358,-1.3355,-1.3389,-1.3388,-1.3388,0,-1.3329,-1.3323,-1.3334,-1.3334,-1.3338,-1.3336,-1.3338,-1.3352,-1.3352,-1.336,-1.3356,-1.3358,-1.3361,-1.3361,-1.3372,-1.3375,-1.3381,-1.3368,-1.3381,-1.3379,-1.3383,-1.3384,-1.3384,-1.3365,-1.3365,-1.3364,-1.3364,0,-1.3291,-1.3298,-1.3298,-1.3302,-1.3303,-1.3306,-1.331,-1.331,-1.3325,-1.3326,-1.3327,-1.3329,-1.3333,-1.3336,-1.3341,-1.3347,-1.3359,-1.336,-1.3358,-1.3355,-1.3353,-1.3356,-1.3393,-1.3361,-1.3361,-1.3361,-1.3361,-1.3362,-1.3263,-1.3259,-1.3267,-1.3268,-1.3273,-1.3278,-1.3276,-1.3285,-1.3286,-1.3291,-1.3299,-1.33,-1.3308,-1.3317,-1.3322,-1.3324,-1.333,-1.3327,-1.3327,-1.3326,-1.3325,-1.3352,-1.3324,-1.3324,-1.3325,-1.3325,-1.3325,0,-1.3227,-1.3234,-1.3235,-1.3241,-1.3243,-1.3254,-1.326,-1.3261,-1.3261,-1.3268,-1.3271,-1.3274,-1.3277,-1.3288,-1.3293,-1.3293,-1.3299,-1.3294,-1.3294,-1.3296,-1.3318,-1.332,-1.3289,-1.3289,-1.3289,-1.3289,-1.3289,-1.3289,-1.3209,-1.3204,-1.3212,-1.3211,-1.3218,-1.3219,-1.3222,-1.3227,-1.3233,-1.3236,-1.3239,-1.3246,-1.3255,-1.3262,-1.3266,-1.3269,-1.3271,-1.3265,-1.327,-1.3291,-1.3294,-1.3297,-1.3299,-1.3265,-1.3265,-1.3248,-1.3248,-1.3248]}]]